TimeEST,TemperatureF,Dew PointF,Humidity,Sea Level PressureIn,VisibilityMPH,Wind Direction,Wind SpeedMPH,Gust SpeedMPH,PrecipitationIn,Events,Conditions,WindDirDegrees,DateUTC
12:37 AM,12.2,8.6,85,30.19,8.0,SW,5.8,-,N/A,,Scattered Clouds,220,2013-01-03 05:37:00
12:53 AM,12.9,8.1,81,30.23,7.0,SW,4.6,-,N/A,,Clear,220,2013-01-03 05:53:00
1:53 AM,10.9,7.0,84,30.23,6.0,SSW,4.6,-,N/A,,Clear,200,2013-01-03 06:53:00
2:53 AM,9.0,5.0,84,30.24,5.0,SSW,4.6,-,N/A,,Clear,210,2013-01-03 07:53:00
3:53 AM,8.1,3.0,80,30.23,6.0,SSW,3.5,-,N/A,,Haze,200,2013-01-03 08:53:00
4:53 AM,7.0,3.0,84,30.21,5.0,Calm,Calm,-,N/A,,Clear,0,2013-01-03 09:53:00
5:53 AM,7.0,3.0,84,30.21,5.0,South,3.5,-,N/A,,Clear,190,2013-01-03 10:53:00
7:53 AM,10.9,3.9,73,30.19,6.0,South,9.2,-,N/A,,Haze,190,2013-01-03 12:53:00
8:53 AM,14.0,6.1,71,30.19,8.0,SSW,10.4,-,N/A,,Overcast,210,2013-01-03 13:53:00
9:53 AM,17.1,8.1,68,30.18,8.0,SW,9.2,-,N/A,,Overcast,220,2013-01-03 14:53:00
10:53 AM,23.0,12.0,63,30.18,10.0,WSW,6.9,-,N/A,,Overcast,240,2013-01-03 15:53:00
11:53 AM,26.1,14.0,60,30.17,10.0,WSW,15.0,-,N/A,,Overcast,250,2013-01-03 16:53:00
12:53 PM,27.0,16.0,63,30.14,10.0,WSW,17.3,-,N/A,,Overcast,250,2013-01-03 17:53:00
1:12 PM,26.6,17.6,69,30.10,9.0,West,16.1,-,N/A,,Overcast,260,2013-01-03 18:12:00
1:53 PM,28.0,18.0,66,30.14,10.0,WSW,18.4,-,N/A,,Overcast,250,2013-01-03 18:53:00
2:53 PM,28.0,19.0,69,30.14,10.0,West,15.0,-,N/A,,Overcast,260,2013-01-03 19:53:00
3:53 PM,28.0,19.9,72,30.16,9.0,WSW,15.0,-,N/A,,Overcast,250,2013-01-03 20:53:00
4:53 PM,28.0,19.9,72,30.19,8.0,WSW,17.3,-,N/A,,Overcast,250,2013-01-03 21:53:00
5:15 PM,28.4,19.4,69,30.14,7.0,WSW,18.4,-,N/A,,Overcast,250,2013-01-03 22:15:00
5:53 PM,28.0,19.9,72,30.20,9.0,West,15.0,-,N/A,,Overcast,260,2013-01-03 22:53:00
6:53 PM,28.0,21.0,75,30.21,8.0,WSW,16.1,-,N/A,,Overcast,250,2013-01-03 23:53:00
7:53 PM,28.0,21.0,75,30.22,7.0,West,11.5,-,N/A,,Overcast,270,2013-01-04 00:53:00
8:53 PM,28.0,21.9,78,30.22,7.0,West,15.0,-,N/A,,Overcast,270,2013-01-04 01:53:00
9:53 PM,28.0,21.9,78,30.22,7.0,West,15.0,-,0.00,,Overcast,260,2013-01-04 02:53:00
10:53 PM,28.0,21.9,78,30.22,8.0,West,13.8,-,N/A,,Overcast,260,2013-01-04 03:53:00
11:53 PM,28.9,21.0,72,30.21,9.0,West,13.8,-,N/A,,Overcast,260,2013-01-04 04:53:00